This is the latest recevied weather packets stored in our database for station/object KK7RJD. If no packets are shown the sender has not sent any weather packets the latest 10 day(s).
| Time | Temp. | Humidity | Pressure | Rain* | Wind** | Luminosity | Snow |
|---|---|---|---|---|---|---|---|
| 1777528462 | 2.78° C | 65% | 1022.8 hPa | 0 mm | - | 0 W/m² | - |
| 1777528161 | 2.22° C | 66% | 1022.7 hPa | 0 mm | - | 0 W/m² | - |
| 1777527857 | 2.22° C | 65% | 1022.6 hPa | 0 mm | - | 0 W/m² | - |
| 1777527553 | 2.22° C | 66% | 1022.7 hPa | 0 mm | - | 0 W/m² | - |
| 1777527248 | 2.22° C | 66% | 1022.8 hPa | 0 mm | - | 0 W/m² | - |
| 1777526944 | 2.22° C | 66% | 1022.7 hPa | 0 mm | - | 0 W/m² | - |
| 1777526640 | 2.78° C | 65% | 1022.7 hPa | 0 mm | - | 0 W/m² | - |
| 1777526334 | 2.22° C | 66% | 1022.8 hPa | 0 mm | - | 0 W/m² | - |
| 1777526030 | 2.22° C | 67% | 1022.7 hPa | 0 mm | - | 0 W/m² | - |
| 1777525727 | 2.22° C | 67% | 1022.7 hPa | 0 mm | - | 0 W/m² | - |
| 1777525424 | 2.78° C | 66% | 1022.7 hPa | 0 mm | - | 0 W/m² | - |
| 1777525120 | 2.78° C | 66% | 1022.6 hPa | 0 mm | - | 0 W/m² | - |
| 1777524818 | 2.78° C | 65% | 1022.7 hPa | 0 mm | - | 0 W/m² | - |
| 1777524515 | 3.33° C | 65% | 1022.8 hPa | 0 mm | - | 0 W/m² | - |
| 1777524213 | 3.33° C | 65% | 1023 hPa | 0 mm | - | 0 W/m² | - |
| 1777523913 | 3.33° C | 68% | 1022.6 hPa | 0 mm | - | 0 W/m² | - |
| 1777523611 | 2.78° C | 71% | 1023 hPa | 0 mm | - | 0 W/m² | - |
| 1777523307 | 2.78° C | 73% | 1023 hPa | 0 mm | - | 0 W/m² | - |
| 1777523002 | 3.33° C | 72% | 1023 hPa | 0 mm | - | 0 W/m² | - |
| 1777522701 | 3.33° C | 72% | 1023 hPa | 0 mm | - | 0 W/m² | - |
| 1777522396 | 3.33° C | 73% | 1022.8 hPa | 0 mm | - | 0 W/m² | - |
| 1777522094 | 3.89° C | 72% | 1022.7 hPa | 0 mm | - | 0 W/m² | - |
| 1777521790 | 3.33° C | 74% | 1022.8 hPa | 0 mm | - | 0 W/m² | - |
| 1777521487 | 3.33° C | 75% | 1022.6 hPa | 0 mm | - | 0 W/m² | - |
| 1777521183 | 3.33° C | 74% | 1022.7 hPa | 0 mm | - | 0 W/m² | - |
* Rain latest hour (hover to see other rain measurements)
** Current wind speed in m/s (hover to see current wind gust speed)